TimeAKST,TemperatureF,Dew PointF,Humidity,Sea Level PressureIn,VisibilityMPH,Wind Direction,Wind SpeedMPH,Gust SpeedMPH,PrecipitationIn,Events,Conditions,WindDirDegrees,DateUTC
12:53 AM,28.0,25.0,88,29.57,10.0,NE,8.1,-,N/A,,Clear,40,2012-11-11 09:53:00
1:53 AM,28.0,26.1,92,29.57,10.0,NE,8.1,-,N/A,,Clear,40,2012-11-11 10:53:00
3:53 AM,26.1,25.0,96,29.59,3.0,Calm,Calm,-,N/A,,Clear,0,2012-11-11 12:53:00
4:53 AM,23.0,21.2,93,29.57,4.0,NE,4.6,-,N/A,,Clear,50,2012-11-11 13:53:00
5:53 AM,24.1,21.9,91,29.59,10.0,Calm,Calm,-,N/A,,Clear,0,2012-11-11 14:53:00
6:14 AM,23.0,21.2,93,29.58,1.8,Calm,Calm,-,N/A,,Clear,0,2012-11-11 15:14:00
6:26 AM,21.2,19.4,93,29.58,0.8,NNE,3.5,-,N/A,,Clear,30,2012-11-11 15:26:00
6:43 AM,21.2,21.2,100,29.59,1.2,North,3.5,-,N/A,,Clear,360,2012-11-11 15:43:00
6:48 AM,23.0,21.2,93,29.59,3.0,North,4.6,-,N/A,,Clear,360,2012-11-11 15:48:00
6:53 AM,23.0,23.0,100,29.60,10.0,North,4.6,-,N/A,,Clear,360,2012-11-11 15:53:00
7:53 AM,23.0,21.0,92,29.60,10.0,NNE,3.5,-,N/A,,Clear,30,2012-11-11 16:53:00
8:53 AM,21.9,21.0,96,29.62,10.0,Calm,Calm,-,N/A,,Clear,0,2012-11-11 17:53:00
9:53 AM,21.9,21.0,96,29.63,10.0,Calm,Calm,-,N/A,,Partly Cloudy,0,2012-11-11 18:53:00
10:53 AM,21.9,19.9,92,29.65,2.5,Calm,Calm,-,N/A,,Clear,0,2012-11-11 19:53:00
11:04 AM,21.2,21.2,100,29.64,10.0,Calm,Calm,-,N/A,,Partly Cloudy,0,2012-11-11 20:04:00
11:53 AM,23.0,21.0,92,29.67,10.0,NE,3.5,-,N/A,,Scattered Clouds,40,2012-11-11 20:53:00
12:53 PM,25.0,23.0,92,29.68,10.0,Calm,Calm,-,N/A,,Partly Cloudy,0,2012-11-11 21:53:00
1:53 PM,28.0,27.0,96,29.68,10.0,Calm,Calm,-,N/A,,Clear,0,2012-11-11 22:53:00
2:53 PM,32.0,28.9,88,29.68,10.0,Calm,Calm,-,N/A,,Clear,0,2012-11-11 23:53:00
3:53 PM,33.1,30.0,89,29.70,10.0,Calm,Calm,-,N/A,,Clear,0,2012-11-12 00:53:00
4:53 PM,27.0,26.1,96,29.72,10.0,Calm,Calm,-,N/A,,Clear,0,2012-11-12 01:53:00
5:53 PM,26.1,24.1,92,29.72,10.0,Calm,Calm,-,N/A,,Clear,0,2012-11-12 02:53:00
6:53 PM,21.9,21.9,100,29.74,10.0,Calm,Calm,-,N/A,,Clear,0,2012-11-12 03:53:00
7:53 PM,23.0,21.0,92,29.75,7.0,Calm,Calm,-,N/A,,Clear,0,2012-11-12 04:53:00
8:53 PM,26.1,23.0,88,29.76,10.0,ESE,3.5,-,N/A,,Clear,110,2012-11-12 05:53:00
9:53 PM,25.0,23.0,92,29.78,10.0,Calm,Calm,-,N/A,,Clear,0,2012-11-12 06:53:00
10:53 PM,25.0,23.0,92,29.79,10.0,Calm,Calm,-,N/A,,Clear,0,2012-11-12 07:53:00
11:53 PM,25.0,23.0,92,29.81,10.0,Calm,Calm,-,N/A,,Clear,0,2012-11-12 08:53:00